Location: Voyageurs National Park
(48.5020°N, 92.9292°W)
Time: 05:17:11
(UTC-05:00)

Daily predictions for brighter satellites

Satellite Brightness Start Highest point End
(mag) Time Altitude Azimuth Time Altitude Azimuth Time Altitude Azimuth
ALOS 2 3.3 00:02:50 31° ESE 00:04:27 45° ENE 00:08:40 10° N
SL-8 R/B 3.6 00:01:26 10° W 00:06:15 68° SSW 00:08:29 31° SE
SL-23 DEB 3.7 00:05:13 10° SW 00:09:43 54° SSE 00:12:56 10° ENE
Cosmos 1741 Rocket 4.0 00:08:11 34° S 00:10:27 69° ESE 00:15:46 10° NNE
H-2A R/B 3.7 00:09:27 14° SW 00:12:22 23° W 00:16:23 10° NW
Meteor 2-5 Rocket 3.9 00:11:09 33° SSE 00:13:46 66° E 00:19:30 10° NNE
Cosmos 1842 Rocket 4.3 00:13:00 10° NNW 00:17:11 44° W 00:18:45 31° SW
Lacrosse 5 3.4 00:14:05 10° NW 00:18:46 36° NNE 00:23:26 10° E
Cosmos 1733 3.1 00:15:49 10° N 00:19:43 89° W 00:20:29 56° S
Cosmos 1656 Rocket 3.8 00:14:05 10° NNW 00:19:45 67° WSW 00:22:04 36° S
Terra 3.8 00:18:26 13° SW 00:21:03 19° W 00:24:28 10° NW
Cosmos 1092 Rocket 4.0 00:17:39 28° SSW 00:21:14 80° W 00:27:33 10° N
Cosmos 374 Rocket 4.5 00:19:57 25° SW 00:22:49 87° SE 00:26:49 10° NE
Meteor 2-1 Rocket 4.4 00:20:53 10° N 00:26:50 72° ENE 00:29:28 34° SSE
Cosmos 1850 Rocket 4.0 00:26:27 31° SSW 00:29:02 83° WNW 00:34:17 10° NNE
Cosmos 1378 4.4 00:28:42 28° E 00:29:02 28° E 00:32:19 10° NNE
CZ-2C R/B 4.1 00:28:24 10° NE 00:32:55 25° E 00:34:45 21° ESE
S3M 4.1 00:28:27 10° N 00:34:43 66° ENE 00:37:39 32° SSE
Cosmos 1470 3.5 00:33:26 10° NNW 00:37:08 42° W 00:37:54 37° SW
NOSS 3-2 (C) 4.2 00:35:49 31° SE 00:37:26 35° ESE 00:43:22 10° NE
BREEZE-M DEB (TANK) 4.0 00:18:56 10° WSW 00:38:08 76° SSE 00:42:37 10° ENE
Cosmos 1689 Rocket 2.1 00:40:50 88° WSW 00:40:50 88° WSW 00:44:04 10° NNW
CZ-4C R/B 2.8 00:40:02 34° SE 00:41:09 37° ESE 00:46:37 10° NE
Cosmos 1655 Rocket 4.0 00:38:29 34° S 00:41:26 82° E 00:47:44 10° N
Cosmos 2369 4.1 00:37:28 10° NNW 00:43:06 60° ENE 00:46:13 26° SE
Helios 1A Rocket 3.3 00:39:46 10° NNE 00:43:41 46° E 00:44:16 43° SE
Cosmos 468 Rocket 3.9 00:44:09 10° NNW 00:49:29 90° NE 00:51:26 40° SSE
COSMOS 2487 2.7 00:50:23 56° WSW 00:50:57 67° WNW 00:54:34 10° NNE
Lacrosse 5 rocket 3.6 00:49:13 10° NW 00:52:50 27° N 00:56:34 10° ENE
Cosmos 1140 Rocket 4.4 00:49:15 18° SW 00:52:52 44° WNW 00:57:54 10° NNE
Meteor 1-16 Rocket 4.4 00:48:50 10° NNW 00:54:20 62° W 00:56:33 36° SSW
Cosmos 1814 Rocket 4.0 00:49:25 10° NNW 00:54:44 88° ENE 00:56:45 39° SSE
Cosmos 1766 Rocket 3.6 00:54:16 50° SSE 00:55:22 75° E 00:59:53 10° NNE
Cosmos 405 Rocket 2.8 01:00:15 54° SE 01:00:39 58° E 01:04:24 10° NNE
Cosmos 1340 3.8 00:59:47 30° WSW 01:00:50 37° WNW 01:04:24 10° N
Cosmos 1328 Rocket 3.7 00:59:04 10° N 01:03:26 65° ENE 01:04:37 44° SE
H-2A R/B 2.7 01:01:38 10° N 01:05:26 56° WNW 01:06:20 43° WSW
Cosmos 2278 3.6 01:00:37 10° NNW 01:06:18 85° WSW 01:08:40 37° SSE
COSMOS 2406 4.0 01:03:09 16° WSW 01:07:28 47° NW 01:13:03 10° NNE
Cosmos 2221 3.3 01:03:32 10° NNW 01:07:34 38° W 01:08:31 34° WSW
Cosmos 1980 Rocket 3.9 01:03:35 10° NNW 01:08:30 30° NE 01:13:23 10° ESE
Landsat 5 3.7 01:08:06 44° SW 01:08:37 47° W 01:12:32 10° NNW
Cosmos 1818 3.5 01:03:43 10° NW 01:09:13 79° SW 01:11:27 37° SSE
Cosmos 1486 Rocket 4.2 01:09:38 41° SSE 01:11:10 57° ESE 01:16:17 10° NNE
Cosmos 1076 Rocket 3.6 01:11:16 48° SW 01:12:18 68° W 01:16:34 10° N
Cosmos 2228 Rocket 3.0 01:07:55 10° NNW 01:12:21 80° W 01:13:23 52° S
Cosmos 2026 Rocket 4.3 01:10:43 29° SW 01:13:45 58° WNW 01:19:45 10° N
Cosmos 1515 Rocket 3.7 01:10:04 10° N 01:14:31 66° ENE 01:15:49 43° SE
Cosmos 1437 Rocket 4.3 01:12:01 10° N 01:15:31 29° ENE 01:17:00 22° ESE
Lacrosse 4 Rocket 4.2 01:15:28 10° WNW 01:17:55 15° NW 01:20:24 10° N
ATLAS 3B R/B 4.2 01:12:27 10° W 01:19:33 39° NNW 01:26:24 10° NE
ISS -2.3 01:17:34 10° W 01:20:44 47° N 01:23:55 10° ENE
NOSS 3-2 (A) 3.5 01:19:14 33° SSW 01:22:17 77° SE 01:29:04 10° NE
Cosmos 1707 4.4 01:21:54 22° WSW 01:23:11 27° WNW 01:26:34 10° NNW
CZ-4B R/B 3.0 01:24:39 25° W 01:24:48 25° W 01:27:56 10° NW
MOS 1-B Rocket 4.4 01:23:21 28° SSE 01:27:52 87° ENE 01:34:32 10° NNW
Cosmos 1607 4.4 01:24:11 16° WSW 01:29:08 59° NW 01:35:18 10° NE
Cosmos 1697 Rocket 3.2 01:24:17 10° NNW 01:29:54 58° ENE 01:33:56 19° SE
Cosmos 2082 Rocket 2.9 01:28:50 32° SSE 01:30:40 41° ESE 01:35:59 10° NE
Cosmos 1763 Rocket 3.4 01:27:07 10° NNW 01:32:29 82° WSW 01:34:32 39° SSE
Cosmos 540 Rocket 4.4 01:34:24 10° NNW 01:39:22 44° ENE 01:43:16 16° SE
ALOS 2 4.2 01:40:13 20° WSW 01:41:01 21° W 01:44:23 10° NW
Cosmos 1833 Rocket 3.4 01:40:04 30° SSE 01:42:03 40° ESE 01:47:16 10° NE
Cosmos 883 Rocket 4.5 01:37:17 10° NNW 01:43:40 78° W 01:46:40 34° S
Aureole 1 Rocket 3.8 01:41:55 10° NNW 01:46:08 57° ENE 01:49:39 21° SE
PSLV R/B 3.9 01:45:44 49° S 01:46:51 85° WSW 01:51:04 10° NNW
Cosmos 1867 3.7 01:45:00 39° S 01:46:54 62° ESE 01:52:20 10° NE
USA 215 4.4 01:43:28 10° ENE 01:48:43 25° SE 01:50:36 22° SSE
COS B Rocket 4.2 01:53:00 10° NNE 01:54:31 21° ENE 01:54:31 21° ENE
Cosmos 1354 Rocket 4.0 01:54:49 38° S 01:56:54 75° ESE 02:02:12 10° NNE
Cosmos 1726 4.0 01:54:31 10° NNE 01:57:39 25° ENE 01:59:42 16° ESE
USA 32 4.2 01:52:24 10° N 01:57:40 69° E 02:00:13 31° SSE
Cosmos 1674 2.7 01:57:00 52° SSE 01:57:41 66° E 02:01:27 10° NNE
CZ-2C R/B 3.2 01:55:22 35° S 01:57:48 77° WSW 02:03:34 10° NNW
Cosmos 1707 Rocket 4.3 01:55:48 10° N 02:00:02 46° ENE 02:02:12 25° SE
Lacrosse 5 1.8 01:57:09 10° NW 02:02:15 85° NE 02:07:19 10° SE
Cosmos 1503 Rocket 4.0 02:01:51 37° SSW 02:04:02 81° ESE 02:09:23 10° NNE
Cosmos 1328 4.3 02:04:39 37° SE 02:05:48 51° E 02:09:41 10° NNE
Cosmos 1656 3.7 02:00:24 10° NNW 02:06:04 65° WSW 02:08:39 32° S
Iridium 2 4.3 02:07:02 36° SE 02:08:08 50° E 02:11:50 10° NNE
SL-16 R/B 3.8 02:03:43 10° NNW 02:08:49 33° NE 02:13:56 10° ESE
Cosmos 2315 Rocket 4.0 02:03:45 10° NNW 02:10:04 70° W 02:13:14 31° S
Cosmos 841 Rocket 4.0 02:05:56 10° NW 02:10:54 44° WSW 02:12:30 34° SSW
Cosmos 1437 4.4 02:11:33 23° ESE 02:12:22 26° E 02:15:13 10° NE
CZ-2C R/B 3.1 02:08:06 10° N 02:13:33 57° WNW 02:16:17 29° SW
Cosmos 1151 Rocket 3.4 02:12:16 10° NNW 02:16:24 49° W 02:17:28 39° SW
Cosmos 724 4.3 02:14:16 33° SSW 02:16:57 71° ESE 02:22:50 10° NE
Cosmos 2322 Rocket 3.4 02:16:46 10° NNW 02:22:07 41° NE 02:27:25 10° ESE
SL-23 DEB 4.2 02:19:10 10° W 02:22:28 50° N 02:25:35 10° ENE
Cosmos 2058 3.1 02:23:26 35° SSE 02:25:00 63° E 02:29:09 10° NNE
Cosmos 783 Rocket 4.4 02:20:01 10° NNW 02:25:19 77° WSW 02:28:16 27° SSE
Cosmos 2151 2.9 02:25:31 40° SSW 02:26:58 75° W 02:31:15 10° N
Cosmos 1745 Rocket 4.5 02:23:23 22° SSE 02:27:30 57° E 02:33:42 10° NNE
CENTAUR R/B 3.0 02:24:34 27° S 02:27:41 50° ESE 02:34:19 10° NE
NOSS 3-2 (C) 4.0 02:23:14 18° WSW 02:28:01 60° NW 02:34:53 10° NE
Cosmos 371 Rocket 3.9 02:23:42 10° NNW 02:28:30 54° ENE 02:33:06 11° SE
Genesis I 4.1 02:25:35 10° NW 02:28:58 32° WSW 02:28:58 32° WSW
CZ-4C R/B 3.0 02:25:10 16° WSW 02:29:28 51° NW 02:35:39 10° NE
Nadezhda 1 Rocket 4.2 02:24:48 10° N 02:31:00 65° ENE 02:35:51 16° SSE
Lacrosse 5 rocket 2.1 02:28:33 10° NW 02:32:48 57° NNE 02:37:13 10° ESE
Cosmos 1538 Rocket 4.4 02:28:45 10° NNW 02:33:57 64° ENE 02:39:04 10° SE
Abrixas 3.2 02:36:07 39° SE 02:36:07 39° SE 02:38:38 10° E
USA 161 4.2 02:35:42 10° E 02:36:36 12° ENE 02:37:31 10° NE
Cosmos 405 3.4 02:34:43 10° NNW 02:38:13 48° W 02:38:53 42° SW
Meteor 1-11 4.4 02:36:43 25° S 02:40:10 70° E 02:45:59 10° NNE
Sich 1 3.3 02:38:33 28° SSE 02:40:43 62° E 02:45:07 10° NNE
IRAS Rocket 4.4 02:36:12 10° NNE 02:41:41 65° ESE 02:44:56 25° S
Cosmos 2344 3.8 02:37:44 21° SW 02:43:31 81° NW 02:52:57 10° NE
PSLV R/B 3.7 02:39:51 10° NNE 02:44:32 88° ESE 02:46:43 31° SSW
H-2A R/B 4.0 02:45:25 17° SSE 02:47:02 18° SE 02:55:22 10° ESE
ASTEX 1 3.8 02:43:07 10° N 02:47:57 52° WNW 02:50:22 27° SW
Cosmos 1437 Rocket 4.0 02:48:30 10° NW 02:51:45 25° W 02:52:28 24° WSW
Cosmos 1980 Rocket 2.3 02:47:20 10° NW 02:52:51 58° WSW 02:56:36 21° S
Cosmos 2360 Rocket 4.1 02:48:21 10° NNW 02:53:18 30° NE 02:58:14 10° ESE
ISS -3.0 02:54:13 10° WNW 02:57:28 66° NNE 03:00:44 10° E
Cosmos 1300 3.1 02:54:17 10° NNW 02:58:00 48° W 02:59:19 33° SSW
Cosmos 773 Rocket 4.5 02:53:00 10° NNW 02:58:07 59° ENE 03:03:11 10° SE
ERS-2 2.2 02:54:35 10° NNE 02:58:18 72° ESE 03:00:01 30° S
CZ-2D R/B 4.3 02:56:47 10° NE 03:00:25 19° E 03:04:02 10° SE
ADEOS 4.4 02:58:13 10° NNE 03:03:13 44° E 03:07:24 14° SSE
ARIANE 5 R/B 4.2 03:01:15 10° NE 03:05:35 27° E 03:09:52 10° SSE
NPP 3.7 03:00:52 10° NNE 03:06:17 75° ESE 03:10:02 20° S
Cosmos 1697 Rocket 3.8 03:08:51 10° NW 03:13:29 26° WSW 03:15:37 21° SW
Cosmos 2082 Rocket 3.2 03:10:39 16° WSW 03:14:49 39° NW 03:20:08 10° NNE
Cosmos 332 Rocket 4.3 03:12:18 10° NW 03:16:46 39° WSW 03:19:18 22° SSW
Cosmos 2242 Rocket 4.0 03:14:46 10° NNW 03:19:01 46° W 03:21:25 23° SSW
Meteor 1-4 Rocket 2.6 03:16:45 10° NNW 03:20:31 90° WNW 03:23:27 16° S
Cosmos 540 Rocket 4.4 03:16:23 10° NW 03:20:48 29° W 03:23:04 21° SW
BREEZE-M DEB (TANK) 3.8 03:19:48 10° W 03:23:01 50° SSW 03:33:21 10° SE
SL-08 R/B 3.6 03:21:53 19° S 03:25:14 54° W 03:30:05 10° NNW
Cosmos 1455 2.2 03:21:41 10° N 03:25:31 84° E 03:28:43 14° S
Meteor 2-10 4.0 03:20:43 10° NNW 03:25:53 72° W 03:30:42 13° S
Cosmos 1833 Rocket 3.6 03:21:45 15° WSW 03:26:00 40° NW 03:31:19 10° NNE
Cosmos 2181 Rocket 4.1 03:21:03 10° N 03:27:14 79° E 03:33:27 10° SSE
USA 215 3.3 03:25:51 10° ENE 03:32:25 78° SE 03:37:56 15° SW
Cosmos 1726 3.4 03:29:55 10° NW 03:33:00 25° W 03:34:22 20° WSW
ATLAS 5 CENTAUR R/B 3.5 03:32:23 10° S 03:36:21 25° ESE 03:40:34 10° ENE
Cosmos 1633 Rocket 3.8 03:34:04 19° SW 03:36:44 39° WNW 03:40:56 10° N
IRS-1C 4.1 03:34:23 10° NNE 03:39:45 85° WNW 03:44:16 15° SSW
Cosmos 2112 Rocket 4.2 03:36:17 10° NNW 03:41:31 75° ENE 03:46:42 10° SSE
Cosmos 1869 3.2 03:38:19 10° NNW 03:42:17 76° W 03:46:06 11° S
SL-14 R/B 4.5 03:42:29 17° WSW 03:44:39 28° WNW 03:48:02 10° N
Lacrosse 5 3.0 03:40:47 10° WNW 03:44:42 23° SW 03:48:16 11° S
Cosmos 1703 Rocket 3.9 03:43:32 10° N 03:47:55 67° ENE 03:52:14 10° SSE
BREEZE-M TANK 2.3 03:46:12 10° WSW 03:50:55 50° S 03:53:20 10° E
ATLAS CENTAUR R/B 3.3 03:46:24 10° NNW 03:50:58 39° NE 03:55:13 10° ESE
SL-16 R/B 2.4 03:47:41 10° NW 03:53:11 51° WSW 03:58:37 10° S
Cosmos 1470 Rocket 4.0 03:51:40 16° SSW 03:55:02 49° WNW 03:59:22 10° N
Cosmos 1626 2.2 03:53:42 15° SSW 03:56:43 67° WNW 04:00:28 10° N
Cosmos 1703 4.2 03:54:39 16° SW 03:57:21 35° WNW 04:01:02 10° N
Resurs 1-4 Rocket 2.7 03:52:08 10° NNE 03:57:23 55° E 04:02:35 10° S
Cosmos 1933 Rocket 4.1 03:56:23 15° SW 03:59:45 45° WNW 04:04:01 10° N
SL-16 R/B 2.6 03:55:35 10° SSE 04:01:51 81° WSW 04:08:10 10° NNW
Cosmos 968 Rocket 3.9 03:59:07 14° SW 04:03:24 49° WNW 04:08:26 10° NNE
Cosmos 2292 Rocket 2.8 04:00:53 13° SSW 04:03:31 75° W 04:07:12 10° N
Cosmos 2074 Rocket 4.4 03:58:37 10° S 04:04:44 64° E 04:10:55 10° NNE
Cosmos 2322 Rocket 2.7 04:00:59 10° NW 04:06:08 38° WSW 04:11:15 10° S
USA 161 2.5 04:05:58 17° SW 04:06:54 21° W 04:08:49 10° NW
Cosmos 1271 Rocket 3.8 04:03:43 10° NW 04:06:56 26° W 04:09:36 13° SW
Cosmos 1933 3.3 04:03:18 10° NNW 04:07:21 76° W 04:11:21 10° S
Cosmos 2184 Rocket 4.5 04:02:18 10° S 04:08:36 66° E 04:14:53 10° NNE
EO 1 Del DPAF 3.5 04:07:03 10° S 04:10:51 50° W 04:14:41 10° NNW
Abrixas 2.5 04:08:36 10° W 04:11:42 90° NW 04:14:48 10° E
Lacrosse 5 rocket 2.1 04:08:01 10° WNW 04:11:58 33° SW 04:16:04 10° SSE
SME Rocket 3.9 04:07:19 10° SSE 04:13:39 75° ENE 04:18:04 10° NNW
Spot 4 Rocket 4.3 04:08:58 10° N 04:14:03 59° WNW 04:19:05 10° SSW
Cosmos 1346 3.1 04:11:57 10° SSW 04:15:02 86° WNW 04:18:08 10° N
Cosmos 2219 Rocket 4.2 04:11:34 10° NNW 04:16:38 33° NE 04:21:40 10° ESE
CENTAUR R/B 3.4 04:12:15 10° WSW 04:18:26 48° NW 04:25:26 10° NE
USA 129 1.4 04:18:27 23° SW 04:18:51 29° W 04:20:06 10° NNW
CZ-4C R/B 4.5 04:14:48 10° WNW 04:19:32 24° NNW 04:24:45 10° NE
Okean 1-7 3.1 04:15:10 10° N 04:19:36 88° ENE 04:23:59 10° S
Okean O Rocket 2.8 04:18:58 10° NNE 04:23:13 42° E 04:27:25 10° S
Cosmos 1709 Rocket 4.5 04:18:37 10° SSW 04:24:41 47° WNW 04:30:43 10° N
Cosmos 304 Rocket 4.1 04:20:38 10° NNW 04:25:17 47° WSW 04:29:53 10° S
ASTRO F (AKARI) 4.2 04:23:48 10° SSE 04:27:05 83° WSW 04:30:17 10° NNW
Cosmos 1680 Rocket 4.0 04:24:29 10° NW 04:29:20 40° WSW 04:34:09 10° S
ERS-2 4.5 04:30:03 10° NW 04:31:36 12° WNW 04:33:07 10° W
ISS -2.6 04:30:49 10° W 04:33:47 32° SW 04:36:44 10° SSE
Meteor 1-26 Rocket 4.2 04:29:26 10° NNW 04:35:00 74° W 04:40:30 10° S
SL-23 DEB 3.5 04:32:08 10° WNW 04:35:17 80° SSW 04:39:27 10° ESE
Cosmos 2360 Rocket 2.3 04:32:07 10° NW 04:37:38 56° WSW 04:43:07 10° S
CZ-2D R/B 2.2 04:35:48 10° N 04:41:01 70° WNW 04:46:15 10° SSW
